Medicine Lodge, KS

5:25 AM CST on December 16, 2019 (GMT -0600)
Medicine Lodge

Weather History for KP28 - October, 2019

Change the Weather History Date:

Tuesday, October 15, 2019

  Actual Average Record
Temperature  
Mean Temperature 56 °F 59 °F  
Max Temperature 69 °F 72 °F 92 °F (1958)
Min Temperature 44 °F 47 °F 29 °F (1978)
Degree Days  
Heating Degree Days 8 7  
Month to date heating degree days 79  
Since 1 July heating degree days 113  
Cooling Degree Days 0 1  
Month to date cooling degree days 31  
Year to date cooling degree days 1762  
Growing Degree Days 6 (Base 50)    
Moisture  
Dew Point 43 °F    
Average Humidity 64    
Maximum Humidity 100    
Minimum Humidity 25    
Precipitation  
Precipitation 0.00 in 0.12 in 2.10 in (1906)
Month to date precipitation 1.43  
Year to date precipitation 23.88  
Snow  
Snow 0.00 in 0.00 in - ()
Month to date snowfall 0.0  
Since 1 July snowfall 0.0  
Since 1 September snowfall 0.0  
Snow Depth -    
Sea Level Pressure  
Sea Level Pressure 29.98 in    
Wind  
Wind Speed 12 mph (NNE)    
Max Wind Speed 26 mph    
Max Gust Speed 43 mph    
T = Trace of Precipitation, MM = Missing Value Source: NWS Daily Summary

Daily Weather History Graph

Daily Weather History Graph

Search for Another Location

Airport or City:

Astronomy

Oct. 15, 2019 Rise Set
Actual Time 7:42 AM CDT 6:57 PM CDT
Civil Twilight 7:15 AM CDT 7:23 PM CDT
Nautical Twilight 6:45 AM CDT 7:54 PM CDT
Astronomical Twilight 6:15 AM CDT 8:24 PM CDT
Moon 8:19 PM CDT (10/15) 9:12 AM CDT (10/15)
Length of Visible Light 12h 07m
Length of Day
11h 15m
Full, 97% of the Moon is Illuminated
Oct 15
Full
Oct 21
Last Quarter
Oct 27
New
Nov 4
First Quarter
Nov 12
Full

Hourly Weather History & Observations

Time (CDT) Temp. Windchill Dew Point Humidity Pressure Visibility Wind Dir Wind Speed Gust Speed Precip Events Conditions
12:56 AM 60.1 °F - 55.9 °F 86% 29.81 in - East 9.2 mph - N/A   Unknown
1:56 AM 59.0 °F - 57.0 °F 93% 29.79 in - ESE 9.2 mph - N/A   Unknown
2:56 AM 59.0 °F - 57.9 °F 96% 29.79 in - ESE 6.9 mph - N/A   Unknown
3:56 AM 59.0 °F - 57.9 °F 96% 29.78 in - ESE 6.9 mph - N/A   Unknown
4:56 AM 57.9 °F - 57.9 °F 100% 29.78 in - ESE 6.9 mph - N/A   Unknown
5:56 AM 57.9 °F - 57.9 °F 100% 29.78 in - SE 9.2 mph - N/A   Unknown
6:56 AM 57.0 °F - 57.0 °F 100% 29.86 in - NNW 13.8 mph 18.4 mph N/A   Unknown
7:56 AM 57.0 °F - 57.0 °F 100% 29.88 in - North 9.2 mph - N/A   Unknown
8:56 AM 55.0 °F - 52.0 °F 89% 29.94 in - North 19.6 mph 31.1 mph N/A   Unknown
9:56 AM 57.0 °F - 41.0 °F 55% 29.96 in - NNE 20.7 mph 35.7 mph N/A   Unknown
10:56 AM 61.0 °F - 37.0 °F 41% 29.97 in - NNE 20.7 mph 38.0 mph N/A   Unknown
11:56 AM 63.0 °F - 36.0 °F 37% 29.99 in - NNE 26.5 mph 42.6 mph N/A   Unknown
12:56 PM 64.9 °F - 36.0 °F 34% 30.01 in - North 23.0 mph 36.8 mph N/A   Unknown
1:56 PM 66.9 °F - 36.0 °F 32% 30.02 in - North 21.9 mph 34.5 mph N/A   Unknown
2:56 PM 68.0 °F - 33.1 °F 27% 30.01 in - North 23.0 mph 34.5 mph N/A   Unknown
4:56 PM 68.0 °F - 30.9 °F 25% 30.04 in - NNE 17.3 mph 28.8 mph N/A   Unknown
5:56 PM 66.0 °F - 30.0 °F 26% 30.06 in - NNE 13.8 mph 24.2 mph N/A   Unknown
6:56 PM 59.0 °F - 32.0 °F 36% 30.09 in - NNE 8.1 mph - N/A   Unknown
7:56 PM 53.1 °F - 33.1 °F 47% 30.14 in - North 3.5 mph - N/A   Unknown
8:56 PM 50.0 °F - 34.0 °F 54% 30.16 in - North 5.8 mph - N/A   Unknown
9:56 PM 46.0 °F 43.1 °F 35.1 °F 66% 30.18 in - North 5.8 mph - N/A   Unknown
10:56 PM 45.0 °F 42.6 °F 35.1 °F 68% 30.20 in - North 4.6 mph - N/A   Unknown
11:56 PM 44.1 °F 41.5 °F 34.0 °F 68% 30.23 in - North 4.6 mph - N/A   Unknown